{"data":{"norad_id":55754,"epoch":"2026-05-25T01:43:56.124768Z","epoch_age_seconds":65923,"freshness":"FRESH","line1":"1 55754U 23028P   26145.07217737 -.00000025  00000+0  57180-5 0  9996","line2":"2 55754  70.0003  51.7871 0002719 269.7167  90.3680 14.98328612177481","mean_motion":14.98328612,"eccentricity":0.0002719,"inclination_deg":70.0003,"raan_deg":51.7871,"arg_perigee_deg":269.7167,"mean_anomaly_deg":90.368,"bstar":5.718e-6,"rev_number":17748,"period_min":96.107088155906,"perigee_km":570.17042460911,"apogee_km":573.94994183735,"semimajor_km":6950.1971832232,"source":"CELESTRAK","updated_at":"2026-05-25T13:38:17.880407Z"}}